owner,sensor,date,latitude,longitude,vertical_datum,sea_water_temperature,qcFlag
Anadarko,ioos:station:wmo:42399:1,2021-03-01T00:15:00Z,27.1117,-90.7640,100.6,19.0,11111222
Anadarko,ioos:station:wmo:42399:1,2021-03-01T00:35:00Z,27.1117,-90.7640,100.6,19.0,11111222
Anadarko,ioos:station:wmo:42399:1,2021-03-01T00:55:00Z,27.1117,-90.7640,100.6,19.0,11111222
Anadarko,ioos:station:wmo:42399:1,2021-03-01T01:15:00Z,27.1117,-90.7640,100.6,19.1,11111222
Anadarko,ioos:station:wmo:42399:1,2021-03-01T01:35:00Z,27.1117,-90.7640,100.6,19.1,11111222
Anadarko,ioos:station:wmo:42399:1,2021-03-01T01:55:00Z,27.1117,-90.7640,100.6,19.1,11111222
Anadarko,ioos:station:wmo:42399:1,2021-03-01T02:15:00Z,27.1117,-90.7640,100.6,19.1,11111222
Anadarko,ioos:station:wmo:42399:1,2021-03-01T02:35:00Z,27.1117,-90.7640,100.6,19.1,11111222
Anadarko,ioos:station:wmo:42399:1,2021-03-01T02:55:00Z,27.1117,-90.7640,100.6,19.1,11111222
Anadarko,ioos:station:wmo:42399:1,2021-03-01T03:15:00Z,27.1117,-90.7640,100.6,19.0,11111222
Anadarko,ioos:station:wmo:42399:1,2021-03-01T03:35:00Z,27.1117,-90.7640,100.6,19.0,11111222
Anadarko,ioos:station:wmo:42399:1,2021-03-01T03:55:00Z,27.1117,-90.7640,100.6,19.0,11111222
Anadarko,ioos:station:wmo:42399:1,2021-03-01T04:15:00Z,27.1117,-90.7640,100.6,19.0,11111222
Anadarko,ioos:station:wmo:42399:1,2021-03-01T04:35:00Z,27.1117,-90.7640,100.6,19.1,11111222
Anadarko,ioos:station:wmo:42399:1,2021-03-01T04:55:00Z,27.1117,-90.7640,100.6,19.2,11111222
Anadarko,ioos:station:wmo:42399:1,2021-03-01T05:15:00Z,27.1117,-90.7640,100.6,19.3,11111222
Anadarko,ioos:station:wmo:42399:1,2021-03-01T05:35:00Z,27.1117,-90.7640,100.6,19.3,11111222
Anadarko,ioos:station:wmo:42399:1,2021-03-01T05:55:00Z,27.1117,-90.7640,100.6,19.3,11111222
Anadarko,ioos:station:wmo:42399:1,2021-03-01T06:15:00Z,27.1117,-90.7640,100.6,19.4,11111222
Anadarko,ioos:station:wmo:42399:1,2021-03-01T06:35:00Z,27.1117,-90.7640,100.6,19.4,11111222
Anadarko,ioos:station:wmo:42399:1,2021-03-01T06:54:00Z,27.1117,-90.7640,100.6,19.4,11111222
Anadarko,ioos:station:wmo:42399:1,2021-03-01T07:14:00Z,27.1117,-90.7640,100.6,19.3,11111222
Anadarko,ioos:station:wmo:42399:1,2021-03-01T07:34:00Z,27.1117,-90.7640,100.6,19.4,11111222
Anadarko,ioos:station:wmo:42399:1,2021-03-01T07:54:00Z,27.1117,-90.7640,100.6,19.2,11111222
Anadarko,ioos:station:wmo:42399:1,2021-03-01T08:14:00Z,27.1117,-90.7640,100.6,19.2,11111222
Anadarko,ioos:station:wmo:42399:1,2021-03-01T08:34:00Z,27.1117,-90.7640,100.6,19.3,11111222
Anadarko,ioos:station:wmo:42399:1,2021-03-01T08:54:00Z,27.1117,-90.7640,100.6,19.2,11111222
Anadarko,ioos:station:wmo:42399:1,2021-03-01T09:14:00Z,27.1117,-90.7640,100.6,19.2,11111222
Anadarko,ioos:station:wmo:42399:1,2021-03-01T09:34:00Z,27.1117,-90.7640,100.6,19.3,11111222
Anadarko,ioos:station:wmo:42399:1,2021-03-01T09:54:00Z,27.1117,-90.7640,100.6,19.3,11111222
Anadarko,ioos:station:wmo:42399:1,2021-03-01T10:14:00Z,27.1117,-90.7640,100.6,19.3,11111222
Anadarko,ioos:station:wmo:42399:1,2021-03-01T10:34:00Z,27.1117,-90.7640,100.6,19.2,11111222
Anadarko,ioos:station:wmo:42399:1,2021-03-01T10:54:00Z,27.1117,-90.7640,100.6,19.3,11111222
Anadarko,ioos:station:wmo:42399:1,2021-03-01T11:14:00Z,27.1117,-90.7640,100.6,19.3,11111222
Anadarko,ioos:station:wmo:42399:1,2021-03-01T11:33:00Z,27.1117,-90.7640,100.6,19.3,11111222
Anadarko,ioos:station:wmo:42399:1,2021-03-01T11:53:00Z,27.1117,-90.7640,100.6,19.2,11111222
Anadarko,ioos:station:wmo:42399:1,2021-03-01T12:13:00Z,27.1117,-90.7640,100.6,19.3,11111222
Anadarko,ioos:station:wmo:42399:1,2021-03-01T12:33:00Z,27.1117,-90.7640,100.6,19.3,11111222
Anadarko,ioos:station:wmo:42399:1,2021-03-01T12:52:00Z,27.1117,-90.7640,100.6,19.3,11111222
Anadarko,ioos:station:wmo:42399:1,2021-03-01T13:12:00Z,27.1117,-90.7640,100.6,19.5,11111222
Anadarko,ioos:station:wmo:42399:1,2021-03-01T13:32:00Z,27.1117,-90.7640,100.6,19.5,11111222
Anadarko,ioos:station:wmo:42399:1,2021-03-01T13:51:00Z,27.1117,-90.7640,100.6,19.4,11111222
Anadarko,ioos:station:wmo:42399:1,2021-03-01T14:11:00Z,27.1117,-90.7640,100.6,19.4,11111222
Anadarko,ioos:station:wmo:42399:1,2021-03-01T14:31:00Z,27.1117,-90.7640,100.6,19.4,11111222
Anadarko,ioos:station:wmo:42399:1,2021-03-01T14:50:00Z,27.1117,-90.7640,100.6,19.4,11111222
Anadarko,ioos:station:wmo:42399:1,2021-03-01T15:10:00Z,27.1117,-90.7640,100.6,19.4,11111222
Anadarko,ioos:station:wmo:42399:1,2021-03-01T15:30:00Z,27.1117,-90.7640,100.6,19.3,11111222
Anadarko,ioos:station:wmo:42399:1,2021-03-01T15:50:00Z,27.1117,-90.7640,100.6,19.3,11111222
Anadarko,ioos:station:wmo:42399:1,2021-03-01T16:10:00Z,27.1117,-90.7640,100.6,19.3,11111222
Anadarko,ioos:station:wmo:42399:1,2021-03-01T16:30:00Z,27.1117,-90.7640,100.6,19.3,11111222
Anadarko,ioos:station:wmo:42399:1,2021-03-01T16:49:00Z,27.1117,-90.7640,100.6,19.3,11111222
Anadarko,ioos:station:wmo:42399:1,2021-03-01T17:09:00Z,27.1117,-90.7640,100.6,19.2,11111222
Anadarko,ioos:station:wmo:42399:1,2021-03-01T17:29:00Z,27.1117,-90.7640,100.6,19.1,11111222
Anadarko,ioos:station:wmo:42399:1,2021-03-01T17:49:00Z,27.1117,-90.7640,100.6,18.9,11111222
Anadarko,ioos:station:wmo:42399:1,2021-03-01T18:09:00Z,27.1117,-90.7640,100.6,18.9,11111222
Anadarko,ioos:station:wmo:42399:1,2021-03-01T18:29:00Z,27.1117,-90.7640,100.6,19.0,11111222
Anadarko,ioos:station:wmo:42399:1,2021-03-01T18:49:00Z,27.1117,-90.7640,100.6,19.1,11111222
Anadarko,ioos:station:wmo:42399:1,2021-03-01T19:09:00Z,27.1117,-90.7640,100.6,19.2,11111222
Anadarko,ioos:station:wmo:42399:1,2021-03-01T19:29:00Z,27.1117,-90.7640,100.6,19.2,11111222
Anadarko,ioos:station:wmo:42399:1,2021-03-01T19:49:00Z,27.1117,-90.7640,100.6,19.1,11111222
Anadarko,ioos:station:wmo:42399:1,2021-03-01T20:09:00Z,27.1117,-90.7640,100.6,19.1,11111222
Anadarko,ioos:station:wmo:42399:1,2021-03-01T20:29:00Z,27.1117,-90.7640,100.6,19.2,11111222
Anadarko,ioos:station:wmo:42399:1,2021-03-01T20:49:00Z,27.1117,-90.7640,100.6,19.2,11111222
Anadarko,ioos:station:wmo:42399:1,2021-03-01T21:09:00Z,27.1117,-90.7640,100.6,19.2,11111222
Anadarko,ioos:station:wmo:42399:1,2021-03-01T21:29:00Z,27.1117,-90.7640,100.6,19.3,11111222
Anadarko,ioos:station:wmo:42399:1,2021-03-01T21:49:00Z,27.1117,-90.7640,100.6,19.2,11111222
Anadarko,ioos:station:wmo:42399:1,2021-03-01T22:09:00Z,27.1117,-90.7640,100.6,19.3,11111222
Anadarko,ioos:station:wmo:42399:1,2021-03-01T22:29:00Z,27.1117,-90.7640,100.6,19.2,11111222
Anadarko,ioos:station:wmo:42399:1,2021-03-01T22:49:00Z,27.1117,-90.7640,100.6,19.2,11111222
Anadarko,ioos:station:wmo:42399:1,2021-03-01T23:09:00Z,27.1117,-90.7640,100.6,19.2,11111222
Anadarko,ioos:station:wmo:42399:1,2021-03-01T23:29:00Z,27.1117,-90.7640,100.6,19.1,11111222
Anadarko,ioos:station:wmo:42399:1,2021-03-01T23:49:00Z,27.1117,-90.7640,100.6,19.1,11111222
Anadarko,ioos:station:wmo:42399:1,2021-03-02T00:09:00Z,27.1117,-90.7640,100.6,19.1,11111222
Anadarko,ioos:station:wmo:42399:1,2021-03-02T00:29:00Z,27.1117,-90.7640,100.6,19.1,11111222
Anadarko,ioos:station:wmo:42399:1,2021-03-02T00:49:00Z,27.1117,-90.7640,100.6,19.1,11111222
Anadarko,ioos:station:wmo:42399:1,2021-03-02T01:09:00Z,27.1117,-90.7640,100.6,19.0,11111222
Anadarko,ioos:station:wmo:42399:1,2021-03-02T01:29:00Z,27.1117,-90.7640,100.6,19.0,11111222
Anadarko,ioos:station:wmo:42399:1,2021-03-02T01:49:00Z,27.1117,-90.7640,100.6,19.0,11111222
Anadarko,ioos:station:wmo:42399:1,2021-03-02T02:09:00Z,27.1117,-90.7640,100.6,19.1,11111222
Anadarko,ioos:station:wmo:42399:1,2021-03-02T02:29:00Z,27.1117,-90.7640,100.6,19.0,11111222
Anadarko,ioos:station:wmo:42399:1,2021-03-02T02:49:00Z,27.1117,-90.7640,100.6,18.8,11111222
Anadarko,ioos:station:wmo:42399:1,2021-03-02T03:09:00Z,27.1117,-90.7640,100.6,18.9,11111222
Anadarko,ioos:station:wmo:42399:1,2021-03-02T03:29:00Z,27.1117,-90.7640,100.6,18.8,11111222
Anadarko,ioos:station:wmo:42399:1,2021-03-02T03:48:00Z,27.1117,-90.7640,100.6,18.9,11111222
Anadarko,ioos:station:wmo:42399:1,2021-03-02T04:08:00Z,27.1117,-90.7640,100.6,19.0,11111222
Anadarko,ioos:station:wmo:42399:1,2021-03-02T04:28:00Z,27.1117,-90.7640,100.6,18.9,11111222
Anadarko,ioos:station:wmo:42399:1,2021-03-02T04:47:00Z,27.1117,-90.7640,100.6,18.9,11111222
Anadarko,ioos:station:wmo:42399:1,2021-03-02T05:07:00Z,27.1117,-90.7640,100.6,18.9,11111222
Anadarko,ioos:station:wmo:42399:1,2021-03-02T05:27:00Z,27.1117,-90.7640,100.6,18.9,11111222
Anadarko,ioos:station:wmo:42399:1,2021-03-02T05:47:00Z,27.1117,-90.7640,100.6,18.9,11111222
Anadarko,ioos:station:wmo:42399:1,2021-03-02T06:07:00Z,27.1117,-90.7640,100.6,19.0,11111222
Anadarko,ioos:station:wmo:42399:1,2021-03-02T06:27:00Z,27.1117,-90.7640,100.6,18.9,11111222
Anadarko,ioos:station:wmo:42399:1,2021-03-02T06:47:00Z,27.1117,-90.7640,100.6,19.1,11111222
Anadarko,ioos:station:wmo:42399:1,2021-03-02T07:07:00Z,27.1117,-90.7640,100.6,19.0,11111222
Anadarko,ioos:station:wmo:42399:1,2021-03-02T07:27:00Z,27.1117,-90.7640,100.6,19.0,11111222
Anadarko,ioos:station:wmo:42399:1,2021-03-02T07:47:00Z,27.1117,-90.7640,100.6,19.0,11111222
Anadarko,ioos:station:wmo:42399:1,2021-03-02T08:06:00Z,27.1117,-90.7640,100.6,19.1,11111222
Anadarko,ioos:station:wmo:42399:1,2021-03-02T08:26:00Z,27.1117,-90.7640,100.6,19.1,11111222
Anadarko,ioos:station:wmo:42399:1,2021-03-02T08:45:00Z,27.1117,-90.7640,100.6,19.2,11111222
Anadarko,ioos:station:wmo:42399:1,2021-03-02T09:05:00Z,27.1117,-90.7640,100.6,19.1,11111222
Anadarko,ioos:station:wmo:42399:1,2021-03-02T09:25:00Z,27.1117,-90.7640,100.6,19.1,11111222
Anadarko,ioos:station:wmo:42399:1,2021-03-02T09:45:00Z,27.1117,-90.7640,100.6,19.1,11111222
Anadarko,ioos:station:wmo:42399:1,2021-03-02T10:05:00Z,27.1117,-90.7640,100.6,18.8,11111222
Anadarko,ioos:station:wmo:42399:1,2021-03-02T10:24:00Z,27.1117,-90.7640,100.6,18.9,11111222
Anadarko,ioos:station:wmo:42399:1,2021-03-02T10:44:00Z,27.1117,-90.7640,100.6,18.9,11111222
Anadarko,ioos:station:wmo:42399:1,2021-03-02T11:04:00Z,27.1117,-90.7640,100.6,19.0,11111222
Anadarko,ioos:station:wmo:42399:1,2021-03-02T11:24:00Z,27.1117,-90.7640,100.6,18.9,11111222
Anadarko,ioos:station:wmo:42399:1,2021-03-02T11:44:00Z,27.1117,-90.7640,100.6,18.9,11111222
Anadarko,ioos:station:wmo:42399:1,2021-03-02T12:04:00Z,27.1117,-90.7640,100.6,18.9,11111222
Anadarko,ioos:station:wmo:42399:1,2021-03-02T12:24:00Z,27.1117,-90.7640,100.6,18.9,11111222
Anadarko,ioos:station:wmo:42399:1,2021-03-02T12:44:00Z,27.1117,-90.7640,100.6,18.9,11111222
Anadarko,ioos:station:wmo:42399:1,2021-03-02T13:04:00Z,27.1117,-90.7640,100.6,18.9,11111222
Anadarko,ioos:station:wmo:42399:1,2021-03-02T13:24:00Z,27.1117,-90.7640,100.6,18.9,11111222
Anadarko,ioos:station:wmo:42399:1,2021-03-02T13:44:00Z,27.1117,-90.7640,100.6,19.0,11111222
Anadarko,ioos:station:wmo:42399:1,2021-03-02T14:04:00Z,27.1117,-90.7640,100.6,19.1,11111222
Anadarko,ioos:station:wmo:42399:1,2021-03-02T14:24:00Z,27.1117,-90.7640,100.6,19.3,11111222
Anadarko,ioos:station:wmo:42399:1,2021-03-02T14:43:00Z,27.1117,-90.7640,100.6,19.1,11111222
Anadarko,ioos:station:wmo:42399:1,2021-03-02T15:03:00Z,27.1117,-90.7640,100.6,19.3,11111222
Anadarko,ioos:station:wmo:42399:1,2021-03-02T15:22:00Z,27.1117,-90.7640,100.6,19.3,11111222
Anadarko,ioos:station:wmo:42399:1,2021-03-02T15:42:00Z,27.1117,-90.7640,100.6,19.3,11111222
Anadarko,ioos:station:wmo:42399:1,2021-03-02T16:02:00Z,27.1117,-90.7640,100.6,19.2,11111222
Anadarko,ioos:station:wmo:42399:1,2021-03-02T16:22:00Z,27.1117,-90.7640,100.6,19.3,11111222
Anadarko,ioos:station:wmo:42399:1,2021-03-02T16:42:00Z,27.1117,-90.7640,100.6,19.3,11111222
Anadarko,ioos:station:wmo:42399:1,2021-03-02T17:02:00Z,27.1117,-90.7640,100.6,19.2,11111222
Anadarko,ioos:station:wmo:42399:1,2021-03-02T17:22:00Z,27.1117,-90.7640,100.6,19.2,11111222
Anadarko,ioos:station:wmo:42399:1,2021-03-02T17:42:00Z,27.1117,-90.7640,100.6,19.3,11111222
Anadarko,ioos:station:wmo:42399:1,2021-03-02T18:02:00Z,27.1117,-90.7640,100.6,19.2,11111222
Anadarko,ioos:station:wmo:42399:1,2021-03-02T18:22:00Z,27.1117,-90.7640,100.6,19.2,11111222
Anadarko,ioos:station:wmo:42399:1,2021-03-02T18:42:00Z,27.1117,-90.7640,100.6,19.2,11111222
Anadarko,ioos:station:wmo:42399:1,2021-03-02T19:02:00Z,27.1117,-90.7640,100.6,19.1,11111222
Anadarko,ioos:station:wmo:42399:1,2021-03-02T19:22:00Z,27.1117,-90.7640,100.6,19.1,11111222
Anadarko,ioos:station:wmo:42399:1,2021-03-02T19:42:00Z,27.1117,-90.7640,100.6,19.1,11111222
Anadarko,ioos:station:wmo:42399:1,2021-03-02T20:02:00Z,27.1117,-90.7640,100.6,19.1,11111222
Anadarko,ioos:station:wmo:42399:1,2021-03-02T20:22:00Z,27.1117,-90.7640,100.6,19.1,11111222
Anadarko,ioos:station:wmo:42399:1,2021-03-02T20:42:00Z,27.1117,-90.7640,100.6,19.1,11111222
Anadarko,ioos:station:wmo:42399:1,2021-03-02T21:02:00Z,27.1117,-90.7640,100.6,18.9,11111222
Anadarko,ioos:station:wmo:42399:1,2021-03-02T21:22:00Z,27.1117,-90.7640,100.6,18.9,11111222
Anadarko,ioos:station:wmo:42399:1,2021-03-02T21:42:00Z,27.1117,-90.7640,100.6,18.9,11111222
Anadarko,ioos:station:wmo:42399:1,2021-03-02T22:02:00Z,27.1117,-90.7640,100.6,19.0,11111222
Anadarko,ioos:station:wmo:42399:1,2021-03-02T22:21:00Z,27.1117,-90.7640,100.6,19.1,11111222
Anadarko,ioos:station:wmo:42399:1,2021-03-02T22:41:00Z,27.1117,-90.7640,100.6,19.2,11111222
Anadarko,ioos:station:wmo:42399:1,2021-03-02T23:01:00Z,27.1117,-90.7640,100.6,19.1,11111222
Anadarko,ioos:station:wmo:42399:1,2021-03-02T23:20:00Z,27.1117,-90.7640,100.6,19.1,11111222
Anadarko,ioos:station:wmo:42399:1,2021-03-02T23:40:00Z,27.1117,-90.7640,100.6,19.2,11111222
Anadarko,ioos:station:wmo:42399:1,2021-03-03T00:00:00Z,27.1117,-90.7640,100.6,19.2,11111222
Anadarko,ioos:station:wmo:42399:1,2021-03-03T00:20:00Z,27.1117,-90.7640,100.6,19.1,11111222
Anadarko,ioos:station:wmo:42399:1,2021-03-03T00:40:00Z,27.1117,-90.7640,100.6,19.2,11111222
Anadarko,ioos:station:wmo:42399:1,2021-03-03T01:00:00Z,27.1117,-90.7640,100.6,19.2,11111222
Anadarko,ioos:station:wmo:42399:1,2021-03-03T01:20:00Z,27.1117,-90.7640,100.6,19.4,11111222
Anadarko,ioos:station:wmo:42399:1,2021-03-03T01:39:00Z,27.1117,-90.7640,100.6,19.4,11111222
Anadarko,ioos:station:wmo:42399:1,2021-03-03T01:59:00Z,27.1117,-90.7640,100.6,19.4,11111222
Anadarko,ioos:station:wmo:42399:1,2021-03-03T02:19:00Z,27.1117,-90.7640,100.6,19.4,11111222
Anadarko,ioos:station:wmo:42399:1,2021-03-03T02:39:00Z,27.1117,-90.7640,100.6,19.2,11111222
Anadarko,ioos:station:wmo:42399:1,2021-03-03T02:59:00Z,27.1117,-90.7640,100.6,19.1,11111222
Anadarko,ioos:station:wmo:42399:1,2021-03-03T03:18:00Z,27.1117,-90.7640,100.6,19.3,11111222
Anadarko,ioos:station:wmo:42399:1,2021-03-03T03:38:00Z,27.1117,-90.7640,100.6,19.3,11111222
Anadarko,ioos:station:wmo:42399:1,2021-03-03T03:58:00Z,27.1117,-90.7640,100.6,19.3,11111222
Anadarko,ioos:station:wmo:42399:1,2021-03-03T04:18:00Z,27.1117,-90.7640,100.6,19.2,11111222
Anadarko,ioos:station:wmo:42399:1,2021-03-03T04:38:00Z,27.1117,-90.7640,100.6,19.4,11111222
Anadarko,ioos:station:wmo:42399:1,2021-03-03T04:58:00Z,27.1117,-90.7640,100.6,19.1,11111222
Anadarko,ioos:station:wmo:42399:1,2021-03-03T05:18:00Z,27.1117,-90.7640,100.6,19.0,11111222
Anadarko,ioos:station:wmo:42399:1,2021-03-03T05:38:00Z,27.1117,-90.7640,100.6,18.9,11111222
Anadarko,ioos:station:wmo:42399:1,2021-03-03T05:58:00Z,27.1117,-90.7640,100.6,18.9,11111222
Anadarko,ioos:station:wmo:42399:1,2021-03-03T06:18:00Z,27.1117,-90.7640,100.6,18.8,11111222
Anadarko,ioos:station:wmo:42399:1,2021-03-03T06:38:00Z,27.1117,-90.7640,100.6,18.8,11111222
Anadarko,ioos:station:wmo:42399:1,2021-03-03T06:58:00Z,27.1117,-90.7640,100.6,18.9,11111222
Anadarko,ioos:station:wmo:42399:1,2021-03-03T07:18:00Z,27.1117,-90.7640,100.6,18.9,11111222
Anadarko,ioos:station:wmo:42399:1,2021-03-03T07:38:00Z,27.1117,-90.7640,100.6,19.0,11111222
Anadarko,ioos:station:wmo:42399:1,2021-03-03T07:58:00Z,27.1117,-90.7640,100.6,18.9,11111222
Anadarko,ioos:station:wmo:42399:1,2021-03-03T08:18:00Z,27.1117,-90.7640,100.6,18.9,11111222
Anadarko,ioos:station:wmo:42399:1,2021-03-03T08:38:00Z,27.1117,-90.7640,100.6,18.8,11111222
Anadarko,ioos:station:wmo:42399:1,2021-03-03T08:57:00Z,27.1117,-90.7640,100.6,18.8,11111222
Anadarko,ioos:station:wmo:42399:1,2021-03-03T09:17:00Z,27.1117,-90.7640,100.6,18.8,11111222
Anadarko,ioos:station:wmo:42399:1,2021-03-03T09:37:00Z,27.1117,-90.7640,100.6,18.8,11111222
Anadarko,ioos:station:wmo:42399:1,2021-03-03T09:57:00Z,27.1117,-90.7640,100.6,18.8,11111222
Anadarko,ioos:station:wmo:42399:1,2021-03-03T10:17:00Z,27.1117,-90.7640,100.6,18.9,11111222
Anadarko,ioos:station:wmo:42399:1,2021-03-03T10:37:00Z,27.1117,-90.7640,100.6,18.8,11111222
Anadarko,ioos:station:wmo:42399:1,2021-03-03T10:56:00Z,27.1117,-90.7640,100.6,18.9,11111222
Anadarko,ioos:station:wmo:42399:1,2021-03-03T11:15:00Z,27.1117,-90.7640,100.6,18.9,11111222
Anadarko,ioos:station:wmo:42399:1,2021-03-03T11:35:00Z,27.1117,-90.7640,100.6,18.9,11111222
Anadarko,ioos:station:wmo:42399:1,2021-03-03T11:55:00Z,27.1117,-90.7640,100.6,19.0,11111222
Anadarko,ioos:station:wmo:42399:1,2021-03-03T12:15:00Z,27.1117,-90.7640,100.6,19.1,11111222
Anadarko,ioos:station:wmo:42399:1,2021-03-03T12:35:00Z,27.1117,-90.7640,100.6,19.1,11111222
Anadarko,ioos:station:wmo:42399:1,2021-03-03T12:54:00Z,27.1117,-90.7640,100.6,19.1,11111222
Anadarko,ioos:station:wmo:42399:1,2021-03-03T13:14:00Z,27.1117,-90.7640,100.6,19.1,11111222
Anadarko,ioos:station:wmo:42399:1,2021-03-03T13:34:00Z,27.1117,-90.7640,100.6,19.2,11111222
Anadarko,ioos:station:wmo:42399:1,2021-03-03T13:54:00Z,27.1117,-90.7640,100.6,19.2,11111222
Anadarko,ioos:station:wmo:42399:1,2021-03-03T14:13:00Z,27.1117,-90.7640,100.6,19.1,11111222
Anadarko,ioos:station:wmo:42399:1,2021-03-03T14:33:00Z,27.1117,-90.7640,100.6,19.2,11111222
Anadarko,ioos:station:wmo:42399:1,2021-03-03T14:53:00Z,27.1117,-90.7640,100.6,19.2,11111222
Anadarko,ioos:station:wmo:42399:1,2021-03-03T15:13:00Z,27.1117,-90.7640,100.6,19.2,11111222
Anadarko,ioos:station:wmo:42399:1,2021-03-03T15:33:00Z,27.1117,-90.7640,100.6,19.1,11111222
Anadarko,ioos:station:wmo:42399:1,2021-03-03T15:53:00Z,27.1117,-90.7640,100.6,19.1,11111222
Anadarko,ioos:station:wmo:42399:1,2021-03-03T16:13:00Z,27.1117,-90.7640,100.6,19.1,11111222
Anadarko,ioos:station:wmo:42399:1,2021-03-03T16:33:00Z,27.1117,-90.7640,100.6,19.0,11111222
Anadarko,ioos:station:wmo:42399:1,2021-03-03T16:53:00Z,27.1117,-90.7640,100.6,19.0,11111222
Anadarko,ioos:station:wmo:42399:1,2021-03-03T17:13:00Z,27.1117,-90.7640,100.6,18.9,11111222
Anadarko,ioos:station:wmo:42399:1,2021-03-03T17:33:00Z,27.1117,-90.7640,100.6,18.9,11111222
Anadarko,ioos:station:wmo:42399:1,2021-03-03T17:53:00Z,27.1117,-90.7640,100.6,19.0,11111222
Anadarko,ioos:station:wmo:42399:1,2021-03-03T18:13:00Z,27.1117,-90.7640,100.6,19.1,11111222
Anadarko,ioos:station:wmo:42399:1,2021-03-03T18:33:00Z,27.1117,-90.7640,100.6,19.0,11111222
Anadarko,ioos:station:wmo:42399:1,2021-03-03T18:53:00Z,27.1117,-90.7640,100.6,19.1,11111222
Anadarko,ioos:station:wmo:42399:1,2021-03-03T19:13:00Z,27.1117,-90.7640,100.6,19.0,11111222
Anadarko,ioos:station:wmo:42399:1,2021-03-03T19:33:00Z,27.1117,-90.7640,100.6,19.1,11111222
Anadarko,ioos:station:wmo:42399:1,2021-03-03T19:53:00Z,27.1117,-90.7640,100.6,19.0,11111222
Anadarko,ioos:station:wmo:42399:1,2021-03-03T20:13:00Z,27.1117,-90.7640,100.6,19.1,11111222
Anadarko,ioos:station:wmo:42399:1,2021-03-03T20:32:00Z,27.1117,-90.7640,100.6,19.3,11111222
Anadarko,ioos:station:wmo:42399:1,2021-03-03T20:52:00Z,27.1117,-90.7640,100.6,19.4,11111222
Anadarko,ioos:station:wmo:42399:1,2021-03-03T21:12:00Z,27.1117,-90.7640,100.6,19.5,11111222
Anadarko,ioos:station:wmo:42399:1,2021-03-03T21:32:00Z,27.1117,-90.7640,100.6,19.4,11111222
Anadarko,ioos:station:wmo:42399:1,2021-03-03T21:52:00Z,27.1117,-90.7640,100.6,19.4,11111222
Anadarko,ioos:station:wmo:42399:1,2021-03-03T22:12:00Z,27.1117,-90.7640,100.6,19.4,11111222
Anadarko,ioos:station:wmo:42399:1,2021-03-03T22:32:00Z,27.1117,-90.7640,100.6,19.5,11111222
Anadarko,ioos:station:wmo:42399:1,2021-03-03T22:52:00Z,27.1117,-90.7640,100.6,19.5,11111222
Anadarko,ioos:station:wmo:42399:1,2021-03-03T23:12:00Z,27.1117,-90.7640,100.6,19.6,11111222
Anadarko,ioos:station:wmo:42399:1,2021-03-03T23:32:00Z,27.1117,-90.7640,100.6,19.6,11111222
Anadarko,ioos:station:wmo:42399:1,2021-03-03T23:52:00Z,27.1117,-90.7640,100.6,19.5,11111222
Anadarko,ioos:station:wmo:42399:1,2021-03-04T00:12:00Z,27.1117,-90.7640,100.6,19.4,11111222
Anadarko,ioos:station:wmo:42399:1,2021-03-04T00:32:00Z,27.1117,-90.7640,100.6,19.4,11111222
Anadarko,ioos:station:wmo:42399:1,2021-03-04T00:52:00Z,27.1117,-90.7640,100.6,19.4,11111222
Anadarko,ioos:station:wmo:42399:1,2021-03-04T01:12:00Z,27.1117,-90.7640,100.6,19.4,11111222
Anadarko,ioos:station:wmo:42399:1,2021-03-04T01:32:00Z,27.1117,-90.7640,100.6,19.4,11111222
Anadarko,ioos:station:wmo:42399:1,2021-03-04T01:52:00Z,27.1117,-90.7640,100.6,19.4,11111222
Anadarko,ioos:station:wmo:42399:1,2021-03-04T02:11:00Z,27.1117,-90.7640,100.6,19.2,11111222
Anadarko,ioos:station:wmo:42399:1,2021-03-04T02:30:00Z,27.1117,-90.7640,100.6,19.2,11111222
Anadarko,ioos:station:wmo:42399:1,2021-03-04T02:50:00Z,27.1117,-90.7640,100.6,19.1,11111222
Anadarko,ioos:station:wmo:42399:1,2021-03-04T03:10:00Z,27.1117,-90.7640,100.6,19.0,11111222
Anadarko,ioos:station:wmo:42399:1,2021-03-04T03:30:00Z,27.1117,-90.7640,100.6,19.0,11111222
Anadarko,ioos:station:wmo:42399:1,2021-03-04T03:50:00Z,27.1117,-90.7640,100.6,19.0,11111222
Anadarko,ioos:station:wmo:42399:1,2021-03-04T04:09:00Z,27.1117,-90.7640,100.6,19.1,11111222
Anadarko,ioos:station:wmo:42399:1,2021-03-04T04:29:00Z,27.1117,-90.7640,100.6,19.0,11111222
Anadarko,ioos:station:wmo:42399:1,2021-03-04T04:49:00Z,27.1117,-90.7640,100.6,19.1,11111222
Anadarko,ioos:station:wmo:42399:1,2021-03-04T05:08:00Z,27.1117,-90.7640,100.6,19.1,11111222
Anadarko,ioos:station:wmo:42399:1,2021-03-04T05:28:00Z,27.1117,-90.7640,100.6,19.1,11111222
Anadarko,ioos:station:wmo:42399:1,2021-03-04T05:48:00Z,27.1117,-90.7640,100.6,19.2,11111222
Anadarko,ioos:station:wmo:42399:1,2021-03-04T06:08:00Z,27.1117,-90.7640,100.6,19.1,11111222
Anadarko,ioos:station:wmo:42399:1,2021-03-04T06:28:00Z,27.1117,-90.7640,100.6,19.1,11111222
Anadarko,ioos:station:wmo:42399:1,2021-03-04T06:47:00Z,27.1117,-90.7640,100.6,19.3,11111222
Anadarko,ioos:station:wmo:42399:1,2021-03-04T07:07:00Z,27.1117,-90.7640,100.6,19.1,11111222
Anadarko,ioos:station:wmo:42399:1,2021-03-04T07:27:00Z,27.1117,-90.7640,100.6,18.9,11111222
Anadarko,ioos:station:wmo:42399:1,2021-03-04T07:47:00Z,27.1117,-90.7640,100.6,18.9,11111222
Anadarko,ioos:station:wmo:42399:1,2021-03-04T08:07:00Z,27.1117,-90.7640,100.6,18.9,11111222
Anadarko,ioos:station:wmo:42399:1,2021-03-04T08:27:00Z,27.1117,-90.7640,100.6,19.0,11111222
Anadarko,ioos:station:wmo:42399:1,2021-03-04T08:47:00Z,27.1117,-90.7640,100.6,19.0,11111222
Anadarko,ioos:station:wmo:42399:1,2021-03-04T09:07:00Z,27.1117,-90.7640,100.6,19.1,11111222
Anadarko,ioos:station:wmo:42399:1,2021-03-04T09:26:00Z,27.1117,-90.7640,100.6,19.0,11111222
Anadarko,ioos:station:wmo:42399:1,2021-03-04T09:46:00Z,27.1117,-90.7640,100.6,19.0,11111222
Anadarko,ioos:station:wmo:42399:1,2021-03-04T10:06:00Z,27.1117,-90.7640,100.6,18.9,11111222
Anadarko,ioos:station:wmo:42399:1,2021-03-04T10:25:00Z,27.1117,-90.7640,100.6,18.9,11111222
Anadarko,ioos:station:wmo:42399:1,2021-03-04T10:45:00Z,27.1117,-90.7640,100.6,18.9,11111222
Anadarko,ioos:station:wmo:42399:1,2021-03-04T11:05:00Z,27.1117,-90.7640,100.6,18.9,11111222
Anadarko,ioos:station:wmo:42399:1,2021-03-04T11:25:00Z,27.1117,-90.7640,100.6,19.0,11111222
Anadarko,ioos:station:wmo:42399:1,2021-03-04T11:45:00Z,27.1117,-90.7640,100.6,18.9,11111222
Anadarko,ioos:station:wmo:42399:1,2021-03-04T12:05:00Z,27.1117,-90.7640,100.6,19.0,11111222
Anadarko,ioos:station:wmo:42399:1,2021-03-04T12:25:00Z,27.1117,-90.7640,100.6,19.0,11111222
Anadarko,ioos:station:wmo:42399:1,2021-03-04T12:45:00Z,27.1117,-90.7640,100.6,19.0,11111222
Anadarko,ioos:station:wmo:42399:1,2021-03-04T13:05:00Z,27.1117,-90.7640,100.6,19.1,11111222